Home > Weather > Seevetal > Past weeks

Flag for Germany Weather for the Past 2 Weeks in Seevetal, Lower Saxony, Germany

Now
37 °F

Partly sunny.


Feels Like: 31 °F
Forecast: 34 / 37 °F
Wind: 8 mph from East

Location: Hamburg-Finkenwerder

Current Time: Feb 13, 2016 at 2:50:22 PM

Latest Report: Feb 13, 2016 at 1:50 PM


Visibility: 6 mi

Pressure: 29.36 "Hg

Humidity: 100%

Dew point: 37 °F

Location of SeevetalLocation

Historic Weather in Seevetal — Graph

°F

Seevetal Temperature Yesterday

Maximum temperature yesterday: 37 °F (at 10:50 AM)
Minimum temperature yesterday: 34 °F (at 5:50 AM)
Average temperature yesterday: 35 °F

High & Low Weather Summary for the Past Weeks

 TemperatureHumidityPressure
High52 °F (Feb 1, 12:50 PM)100% (Jan 29, 4:20 PM)30.18 "Hg (Jan 29, 4:20 PM)
Low32 °F (Feb 13, 10:50 AM)61% (Feb 2, 7:20 PM)28.74 "Hg (Feb 9, 9:20 PM)
Average42 °F92%29.62 "Hg
* Reported Jan 29 1:20 PM — Feb 13 1:20 PM, Seevetal, Weather by CustomWeather, © 2016

Note: Actual official high and low records may vary slightly from our data, if they occured in-between our weather recording intervals... More about our weather records

Advertising

Seevetal Weather History for the Previous 24 Hours

 ConditionsComfort  
Time TempWeatherWind HumidityBarometerVisibility
1:20 PM
Sat, Feb 13
36 °FPartly sunny.7 mph100%29.39 "Hg5 mi
12:50 PM36 °FPartly sunny.8 mph100%29.39 "Hg5 mi
12:20 PM34 °FFog.9 mph100%29.39 "Hg3 mi
11:50 AM34 °FFog.8 mph100%29.42 "Hg2 mi
11:20 AM32 °FIce fog.8 mph100%29.42 "Hg1 mi
10:50 AM32 °FIce fog.9 mph100%29.45 "Hg1 mi
8:20 PM
Fri, Feb 12
34 °FFog.6 mph100%29.53 "Hg2 mi
7:50 PM34 °FFog.6 mph100%29.53 "Hg2 mi
7:20 PM34 °FFog.3 mph100%29.53 "Hg3 mi
6:50 PM34 °FFog.2 mph100%29.53 "Hg3 mi
6:20 PM36 °FFog.3 mph100%29.53 "Hg3 mi
5:50 PM36 °FPassing clouds.5 mph100%29.53 "Hg4 mi
5:20 PM36 °FPartly sunny.5 mph100%29.53 "Hg4 mi
4:50 PM36 °FPartly sunny.5 mph100%29.53 "Hg5 mi
4:20 PM36 °FPartly sunny.6 mph100%29.53 "Hg4 mi
3:50 PM36 °FScattered clouds.5 mph100%29.53 "Hg6 mi
3:20 PM37 °FBroken clouds.5 mph100%29.53 "Hg6 mi
2:50 PM37 °FBroken clouds.6 mph100%29.53 "Hg6 mi
2:20 PM37 °FBroken clouds.8 mph100%29.56 "Hg5 mi
Weather by CustomWeather, © 2016

See weather overviewHow to use our weather pages